Location: Flint Hill Observatory
(31.1875°N, 100.5222°W)
Time: 13:25:02
(UTC-06:00)

Daily predictions for brighter satellites

Satellite Brightness Start Highest point End
(mag) Time Altitude Azimuth Time Altitude Azimuth Time Altitude Azimuth
Cosmos 1536 Rocket 4.0 18:58:03 10° N 19:02:15 40° E 19:06:27 10° SSE
ATLAS 2A CENTAUR R/B 4.4 18:56:56 10° W 19:04:01 70° S 19:37:11 10° ESE
Cosmos 407 Rocket 4.4 18:59:02 10° SSW 19:04:08 55° WNW 19:09:20 10° N
Cosmos 2219 4.0 19:03:28 10° SSE 19:08:27 31° ESE 19:13:27 10° NE
Cosmos 676 Rocket 4.2 19:03:36 10° SSW 19:08:45 76° WNW 19:13:58 10° NNE
Cosmos 2360 Rocket 2.9 19:07:13 10° N 19:12:14 32° ENE 19:17:13 10° SE
Meteor 1-11 Rocket 3.9 19:12:48 10° S 19:18:23 56° E 19:24:07 10° NNE
DNEPR-1 R/B 3.4 19:14:26 10° NNW 19:18:39 84° ENE 19:23:04 10° SSE
BREEZE-M DEB (TANK) 3.0 19:14:32 10° SW 19:21:05 79° NW 19:23:47 10° NE
Cosmos 1602 3.6 19:18:03 10° S 19:21:53 70° E 19:25:45 10° NNE
Cosmos 1461 2.8 19:19:15 10° NNW 19:23:19 90° S 19:27:29 10° SSE
Cosmos 1140 Rocket 3.4 19:18:26 10° SSW 19:23:34 87° E 19:28:43 10° NNE
Resurs 01 Rocket 2.6 19:20:52 10° SE 19:24:29 25° ENE 19:28:06 10° NNE
Cosmos 1300 Rocket 3.5 19:20:47 10° S 19:25:09 71° E 19:29:34 10° N
Abrixas rocket 2.2 19:23:36 10° SW 19:26:57 85° SE 19:29:39 15° NE
DELTA 2 R/B (1) 4.0 19:21:58 10° WNW 19:27:25 48° NNE 19:31:31 17° E
ATLAS CENTAUR R/B 2.9 19:22:48 10° SSW 19:28:57 32° SE 19:30:46 19° E
Cosmos 614 Rocket 3.8 19:26:13 10° S 19:31:16 76° ESE 19:36:21 10° NNE
ASTRO E2 4.3 19:28:18 10° W 19:31:51 30° SSW 19:35:23 10° SE
OAO 3 Copernicus 4.4 19:26:51 10° WNW 19:31:55 69° NNE 19:35:29 19° E
ALOS 2.5 19:28:52 10° SSE 19:33:17 45° ENE 19:37:45 10° N
FREGAT/IRIS 2.5 19:32:04 10° SSE 19:35:08 83° ENE 19:38:13 10° N
Spot 2 Rocket 3.9 19:34:41 10° SE 19:39:20 39° ENE 19:44:01 10° N
Resurs 1-3 4.2 19:38:13 10° SE 19:42:09 33° ENE 19:46:05 10° N
Cosmos 1340 2.7 19:40:33 10° N 19:44:20 79° W 19:48:05 10° S
Cosmos 2181 Rocket 4.0 19:39:57 10° N 19:46:15 82° E 19:52:36 10° S
Cosmos 2333 Rocket 4.2 19:45:13 10° NNE 19:46:14 11° NE 19:46:14 11° NE
SL-16 R/B 3.6 19:43:45 10° NW 19:49:00 40° WSW 19:54:14 10° S
Cosmos 1850 Rocket 4.1 19:45:41 10° SSW 19:50:58 84° WNW 19:56:19 10° NNE
OTV 4 1.4 19:50:15 10° SW 19:52:48 33° SSE 19:52:48 33° SSE
HJ-1C 3.2 19:50:06 10° SSE 19:53:27 82° E 19:56:50 10° N
Cosmos 2074 Rocket 3.9 19:48:55 10° S 19:55:04 65° E 20:01:17 10° NNE
SJ-6B 3.6 19:52:43 10° S 19:56:41 54° W 20:00:34 10° NNW
Helios 1B rocket 2.7 19:54:32 18° NE 19:57:17 43° E 20:01:13 10° S
Cosmos 2184 Rocket 3.9 19:51:51 10° S 19:58:06 67° E 20:04:20 10° NNE
Tiangong 2 0.9 19:55:09 10° WNW 19:58:14 83° SSW 19:58:32 69° SE
FengYun 1-2 T 4.1 19:53:30 10° SSE 19:58:57 82° ENE 20:04:27 10° N
Okean 1 Rocket 3.7 19:55:41 10° SSW 20:00:05 58° W 20:04:31 10° N
CZ-3C R/B 2.7 20:00:38 10° SW 20:02:56 14° SSW 20:03:44 13° S
Genesis I 4.5 20:00:44 10° N 20:03:08 26° NNE 20:03:08 26° NNE
Cosmos 2322 Rocket 4.3 20:00:37 10° NW 20:05:14 27° WSW 20:09:52 10° SSW
Meteor 1-5 Rocket 4.2 19:59:39 10° S 20:05:36 75° E 20:11:32 10° NNE
FENGYUN 3A 3.7 20:00:37 10° S 20:06:01 83° WSW 20:11:28 10° NNW
Hubble Space Telescope 1.6 20:02:44 10° SW 20:06:29 34° SSE 20:06:47 33° SSE
Intercosmos 24 4.1 20:09:15 10° S 20:13:06 83° W 20:18:21 10° N
BREEZE-M DEB (TANK) 3.7 20:14:21 10° NNW 20:17:19 36° NE 20:17:19 36° NE
CZ-2D R/B 4.0 20:18:53 40° N 20:18:53 40° N 20:21:27 10° N
GPS 2-04 Rocket1 3.1 20:16:26 10° W 20:20:41 58° NNW 20:21:00 56° N
Cosmos 2322 4.0 20:16:17 10° NNW 20:21:57 68° WSW 20:27:35 10° S
H-2A R/B 3.0 20:21:38 39° SSW 20:22:48 63° W 20:26:30 10° NNW
Cosmos 1025 Rocket 2.9 20:20:47 10° N 20:25:10 89° W 20:25:45 67° S
Atlas Centaur 2 3.7 20:21:03 10° SSW 20:26:15 24° SSE 20:26:15 24° SSE
OAO 3 Rocket 4.2 20:22:19 10° SW 20:26:02 34° S 20:26:02 34° S
Cosmos 2154 Rocket 4.0 20:20:54 10° S 20:27:05 58° E 20:33:17 10° NNE
Okean 1-7 Rocket 4.4 20:27:32 10° NNW 20:31:55 52° W 20:36:14 10° S
Meteor 2-13 Rocket 4.3 20:26:15 10° S 20:32:18 86° E 20:38:24 10° N
Cosmos 2285 Rocket 4.0 20:26:10 10° N 20:32:30 59° ENE 20:32:48 58° E
BREEZE-M DEB (TANK) 3.9 20:32:29 10° WNW 20:35:46 37° W 20:35:46 37° W
COSMOS 2428 2.5 20:31:44 10° NNW 20:37:27 81° ENE 20:37:44 77° ESE
Meteor 1-23 Rocket 4.5 20:31:53 10° NNW 20:37:39 68° W 20:43:18 10° S
Cosmos 2237 4.2 20:31:57 10° NNW 20:37:41 78° WSW 20:39:36 43° S
Cosmos 2297 Rocket 4.4 20:33:19 10° S 20:33:27 11° S 20:33:27 11° S
Cosmos 2333 4.1 20:33:01 10° NNW 20:38:23 69° NE 20:38:23 69° NE
Meteor 2-4 Rocket 4.5 20:34:25 10° NNW 20:39:41 49° W 20:44:50 10° SSW
Cosmos 2237 Rocket 4.2 20:36:38 10° N 20:37:45 15° NNE 20:37:45 15° NNE
Cosmos 2360 Rocket 4.1 20:51:21 10° NW 20:56:02 27° WSW 21:00:42 10° SSW
Cosmos 2219 Rocket 3.5 20:52:36 10° NNW 20:55:22 30° N 20:55:22 30° N
Cosmos 2227 Rocket 3.5 20:52:45 10° SSW 20:55:24 29° SSW 20:55:24 29° SSW
Resurs 01 Rocket 4.0 20:57:31 10° SW 21:00:51 21° W 21:04:12 10° NW
Cosmos 2333 Rocket 4.2 21:26:32 10° NNW 21:28:17 21° NNW 21:28:17 21° NNW
ATLAS 2A CENTAUR R/B 4.3 21:42:07 10° WSW 22:26:06 - ESE 21:44:17 26° SW
